User: anonymous   Login
Location: Unspecified
(0.0000°N, 0.0000°E)
Time: 19:22:10
(UTC+00:00)
Language:

HORYU 2 - Orbit

View from above orbital plane
View from above orbital plane
View from above satellite
View from above satellite

Ground track
Ground track

The orbit data is extracted from the following two-line orbital elements,

1 38340U 12025D   18140.00026018  .00000190  00000-0  36027-4 0  9991
2 38340  98.3676 160.7515 0010364 304.6467  55.3763 14.75548509322956
Epoch (UTC): 20 May 2018 00:00:22
Eccentricity: 0.0010364
inclination: 98.3676°
perigee height: 636 km
apogee height: 650 km
right ascension of ascending node: 160.7515°
argument of perigee: 304.6467°
revolutions per day: 14.75548509
mean anomaly at epoch: 55.3763°
orbit number at epoch: 32295

The dashed part of the orbit path shows where the satellite is in the earth's shadow,  

DLR